sat.trackr.live / text

‹ back to catalog

UNKNOWN

NORAD 87845

UNKNOWN UNKNOWN UNKNOWN

§ Identity

Operator
Country
Launch date
Launch site
Launch vehicle
Mass (kg)
RCS (m²)

External: N2YO · Heavens-Above

§ Orbital elements

Epoch: 2026-09-18T13:06:34.154496Z

Period
111.64 min
Inclination
98.8645°
Eccentricity
0.0576558
Mean motion
12.89882903 rev/d
Perigee alt
859.2 km
Apogee alt
1,744.8 km
Semi-major
7,680.1 km
B*
-2.0370e-4
RAAN
169.6552°
Arg perigee
329.2617°
Mean anomaly
27.5864°
Rev number
60,127

§ Raw data

UNKNOWN1 87845U          26261.54622864 -.00000146  00000+0 -20370-3 0  99932 87845  98.8645 169.6552 0576558 329.2617  27.5864 12.89882903601272

JSON: /api/v1/satellites/87845 · /tle

For live sub-satellite position, see the globe view (requires WebGL).

§ Visibility from observer

Set your observer location to see the next 7 days of passes ≥ 10°. The values pass through the URL so the page stays shareable.

No JS? Fill the form by hand. The geolocation button needs JavaScript.